Miscellaneous Local Product
Issued by NWS Hastings, NE

Home | Current Version | Previous Version | Text Only | Print | Product List | Glossary Off
Versions: 1 2 3 4 5 6 7 8 9 10 11 12 13 14 15 16 17 18 19 20 21 22 23 24 25 26 27 28 29 30 31 32 33 34 35 36 37 38 39 40 41 42 43 44 45 46 47 48 49 50

000
AXUS43 KGID 272302
MISGRI

GID CWA HOURLY WEATHER ROUNDUP
NATIONAL WEATHER SERVICE HASTINGS NE
600 PM CDT TUE JUN 27 2017

NOTE: "FAIR" INDICATES FEW OR NO CLOUDS BELOW 12,000 FEET WITH NO
SIGNIFICANT WEATHER AND/OR OBSTRUCTIONS TO VISIBILITY.

...SOUTH CENTRAL NEBRASKA...

CITY           SKY/WX    TMP DP  RH WIND       PRES   REMARKS
GRAND ISLAND   SUNNY     83  68  60 S22G30    29.76F
HASTINGS       SUNNY     85  67  54 SE16G29   29.77F
KEARNEY        SUNNY     90  66  45 SE23G29   29.73F HX  92
ORD            MOSUNNY   84  63  49 SE18G26   29.70F
YORK           PTSUNNY   82  66  57 SE17G25   29.79F
AURORA         MOSUNNY   83  66  56 SE21G28   29.77F
LEXINGTON      MOSUNNY   89  64  43 SE15G21   29.69F HX  90
HOLDREGE       SUNNY     89  56  32 S16G24    29.71F
HEBRON         MOSUNNY   84  69  59 SE15G25   29.78F

...NEBRASKA PANHANDLE...

CITY           SKY/WX    TMP DP  RH WIND       PRES   REMARKS
CHADRON        TSTM      74  53  48 S28G39    29.62R
ALLIANCE       CLOUDY    74  57  55 N9        29.68F
SCOTTSBLUFF    CLOUDY    87  54  32 NE9       29.68F
SIDNEY         TSTM      71  55  56 E14       29.68F

...WESTERN AND NORTH CENTRAL NEBRASKA...

CITY           SKY/WX    TMP DP  RH WIND       PRES   REMARKS
VALENTINE      CLOUDY    86  56  35 S24G32    29.61F
AINSWORTH      PTSUNNY   83  64  51 S23G31    29.67F
ONEILL         MOSUNNY   82  65  56 S25G35    29.71F
BROKEN BOW     MOSUNNY   86  65  49 S23G29    29.70F
IMPERIAL       MOSUNNY   94  46  19 S16G22    29.66F HX  90
NORTH PLATTE   PTSUNNY   91  66  43 SE9G17    29.67F HX  93
MCCOOK         SUNNY     97  53  22 S24G37    29.66F HX  94

...EASTERN NEBRASKA...

CITY           SKY/WX    TMP DP  RH WIND       PRES   REMARKS
NORFOLK        MOSUNNY   81  63  54 S26G39    29.74F
SO SIOUX CITY  SUNNY     80  61  52 S20G28    29.79F
TEKAMAH        SUNNY     83  61  47 S20G31    29.81F
COLUMBUS       CLOUDY    81  66  60 S18G24    29.80F
ALBION         PTSUNNY   83  64  54 S23G33    29.76F
OMAHA EPPLEY   PTSUNNY   81  63  54 SE25G32   29.84F
OFFUTT AFB     MOSUNNY   79  64  59 SE23      29.83F
MILLARD        PTSUNNY   81  66  60 SE21G26   29.84F
LINCOLN        PTSUNNY   82  67  60 S22       29.82F
NEBRASKA CITY  MOSUNNY   80  68  67 S21       29.86F
BEATRICE       MOSUNNY   81  68  64 SE17G26   29.82F
FALLS CITY     MOSUNNY   80  66  62 S18G26    29.87F

...NORTHERN KANSAS...

CITY           SKY/WX    TMP DP  RH WIND       PRES   REMARKS
GOODLAND       PTSUNNY   91  50  24 VRB6      29.73F
HILL CITY      SUNNY     96  55  25 S18G32    29.72F HX  94
NORTON         CLEAR     95  45  17 S22G31    29.70F HX  91
PHILLIPSBURG   SUNNY     97  52  21 S24G33    29.71F HX  94
SMITH CENTER     N/A     95  55  26 S18G29    29.73F HX  93
HAYS           SUNNY     96  60  30 S24G33    29.73F HX  96
RUSSELL        SUNNY     96  63  33 S28G36    29.74F HX  97
CONCORDIA      SUNNY     89  71  55 SE22G32   29.78F HX  95
SALINA         SUNNY     95  65  37 S29G38    29.79F HX  97
TOPEKA         MOSUNNY   80  69  69 SE18G25   29.90F



USA.gov is the U.S. government's official web portal to all federal, state and local government web resources and services.